EW9037 Weather Reports


time (UTC)temp
C
wind
direction
speed
KPH
gust
KPH
rain 1hr
cm
rain 24hr
cm
rain mn
cm
humidity
%
barometer
mb
20260504031518 11 167 3.2 6.4 0.00 0.00 0.00 65 1014.1
20260504030017 11 167 1.6 4.8 0.00 0.00 0.00 65 1014.1
20260504024511 11 169 0.0 3.2 0.00 0.00 0.00 63 1014.4
20260504023028 11 151 0.0 3.2 0.00 0.00 0.00 65 1014.3
20260504021524 11 136 1.6 1.6 0.00 0.00 0.00 63 1014.6
20260504020023 12 150 0.0 8.0 0.00 0.00 0.00 59 1014.4
20260504014527 11 157 0.0 3.2 0.00 0.00 0.00 63 1014.3
20260504013017 11 151 0.0 0.0 0.00 0.00 0.00 63 1014.4
20260504011512 12 140 0.0 0.0 0.00 0.00 0.00 59 1014.5
20260504010009 13 238 0.0 1.6 0.00 0.00 0.00 55 1014.3
20260504004526 15 171 3.2 4.8 0.00 0.00 0.00 50 1013.7
20260504003029 15 211 3.2 8.0 0.00 0.00 0.00 49 1013.7
20260504001525 15 202 6.4 12.9 0.00 0.00 0.00 48 1013.6
20260504000020 16 222 4.8 14.5 0.00 0.00 0.00 45 1013.6
20260503234519 16 200 9.7 20.9 0.00 0.00 0.00 44 1013.6
20260503233018 17 205 4.8 16.1 0.00 0.00 0.00 44 1013.6
20260503231512 17 246 6.4 24.1 0.00 0.00 0.00 44 1013.6
20260503230028 17 229 9.7 22.5 0.00 0.00 0.00 42 1013.7
20260503224526 17 191 9.7 20.9 0.00 0.00 0.00 43 1014.3
20260503223026 17 185 11.3 27.4 0.00 0.00 0.00 41 1014.6
20260503221528 18 203 9.7 24.1 0.00 0.00 0.00 41 1014.9
20260503220020 17 232 11.3 20.9 0.00 0.00 0.00 41 1014.9
20260503214515 18 238 11.3 20.9 0.00 0.00 0.00 41 1015.4
20260503213030 18 264 17.7 27.4 0.00 0.00 0.00 40 1015.7
20260503211528 18 234 9.7 24.1 0.00 0.00 0.00 39 1016.0
20260503210029 17 198 14.5 30.6 0.00 0.00 0.00 39 1015.7
20260503204526 18 176 11.3 30.6 0.00 0.00 0.00 37 1016.1
20260503203024 17 219 9.7 24.1 0.00 0.00 0.00 37 1016.1
20260503201520 18 247 8.0 22.5 0.00 0.00 0.00 37 1016.4
20260503200016 18 210 14.5 22.5 0.00 0.00 0.00 36 1016.5
20260503194529 17 237 9.7 29.0 0.00 0.00 0.00 37 1017.2
20260503193027 17 227 12.9 30.6 0.00 0.00 0.00 38 1017.7
20260503191530 17 180 14.5 25.7 0.00 0.00 0.00 36 1018.1
20260503190027 17 251 6.4 25.7 0.00 0.00 0.00 35 1018.2
20260503184524 17 205 6.4 29.0 0.00 0.00 0.00 35 1018.3
20260503183021 16 147 8.0 30.6 0.00 0.00 0.00 37 1018.6
20260503181519 16 272 12.9 20.9 0.00 0.00 0.00 34 1018.9
20260503180030 15 213 11.3 24.1 0.00 0.00 0.00 38 1018.8
20260503174529 16 227 12.9 27.4 0.00 0.00 0.00 38 1019.2
20260503173029 15 154 11.3 24.1 0.00 0.00 0.00 36 1019.5
20260503171526 15 277 14.5 22.5 0.00 0.00 0.00 35 1019.7
20260503081507 0 352 0.0 0.0 0.00 0.00 0.00 94 1020.2
20260503071518 1 346 0.0 0.0 0.00 0.00 0.00 93 1019.9
20260503054531 1 346 0.0 0.0 0.00 0.00 0.00 92 1020.2
20260503053020 2 346 0.0 0.0 0.00 0.00 0.00 91 1020.1
20260503051511 2 346 0.0 0.0 0.00 0.00 0.00 92 1020.1
20260503050021 2 346 0.0 0.0 0.00 0.00 0.00 90 1020.0
20260503044507 3 346 0.0 0.0 0.00 0.00 0.00 91 1020.0
20260503043027 3 298 0.0 0.0 0.00 0.00 0.00 90 1020.0
20260503041532 3 298 0.0 0.0 0.00 0.00 0.00 90 1020.0
20260503040022 3 298 0.0 0.0 0.00 0.00 0.00 90 1019.9
20260503034518 3 298 0.0 0.0 0.00 0.00 0.00 89 1019.9
20260503033013 4 298 0.0 0.0 0.00 0.00 0.00 87 1019.9